National Weather Service Raw Text Product

Displaying AFOS PIL: RWRFL Received: 2017-08-18 21:00 UTC


860 
ASUS42 KTBW 182117
RWRFL 
FLORIDA REGIONAL WEATHER ROUNDUP
NATIONAL WEATHER SERVICE TAMPA BAY RUSKIN FL
500 PM EDT FRI AUG 18 2017

NOTE: "FAIR" INDICATES FEW OR NO CLOUDS BELOW 12,000 FEET WITH NO
SIGNIFICANT WEATHER AND/OR OBSTRUCTIONS TO VISIBILITY.

FLZ001>010-012>015-112-114-115-182200-
PANHANDLE FLORIDA
  
CITY           SKY/WX    TMP DP  RH WIND       PRES   REMARKS
PENSACOLA      CLOUDY    83  75  77 SW9       29.97F                  
PENSACOLA NAS  LGT RAIN  80  74  81 S12       29.97                   
MILTON NAS     MOSUNNY   94  74  52 NW6       29.96  HX 104           
CRESTVIEW      PTSUNNY   93  72  50 N5        29.97F HX 101           
DUKE FIELD     PTSUNNY   94  70  45 N9        29.95F HX 101           
VALPARAISO     PTSUNNY   88  76  67 S13       29.95F HX  99           
MARY ESTHER    PTSUNNY   87  77  72 E3        29.95  HX  98           
PANAMA CITY    FAIR      79  72  79 S9        29.97R THUNDER          
TYNDALL AFB    CLOUDY    88  78  73 W10       29.97F HX 102           
APALACHICOLA   CLOUDY    86  78  77 SW7       29.96F HX  98           

STATION/POSITION SKY/WX   TEMP    WIND        PRES    WAVE   SWELL
                          AIR SEA DIR/SP/G            HT/PER HT/PER
                          (F)     (DEG/KT/KT) (MB)    (FT/S) (FT/S)
30.1N   87.6W              86 88  260/ 10/ 12 1014.8F   1/ 4
29.2N   88.2W              86 88  290/  4/  6 1015.9
28.8N   86.0W              87 87  290/  2/  4 1015.6F   2/ 4   2/ 4
PANAMA CITY BEAC           80      60/  5/  9 1015.7S
TOWER C                    77                 1016.1R
28.5N   84.5W              83 86  210/  8/  8 1015.8F   1/ 4

$$
FLZ011-016>038-118-127-128-134-139-239-182200-
NORTH FLORIDA
  
CITY           SKY/WX    TMP DP  RH WIND       PRES   REMARKS
MARIANNA       MOSUNNY   95  74  50 NW9       29.94F HX 105           
TALLAHASSEE    PTSUNNY   97  70  41 VRB5      29.94F HX 103           
PERRY          CLOUDY    79  75  89 CALM      29.98F                  
LIVE OAK       MOSUNNY   77  77 100 CALM      29.99F                  
CROSS CITY     LGT RAIN  76  75  96 S3        30.04S                  
LAKE CITY      LGT RAIN  73  73 100 CALM      29.99F                  
GAINESVILLE    LGT RAIN  76  75  97 VRB5      30.03F                  
WILLISTON      SUNNY     79  77  94 CALM      30.02R                  
PALATKA        PTSUNNY   77  77 100 W3        30.00R                  
MAYPORT NAS    PTSUNNY   88  75  65 SW6       29.96F HX  97           
JACKSONVILLE   PTSUNNY   87  77  72 W7        29.97R HX  99           
JAX NAS        PTSUNNY   84  76  76 W15       29.99R                  
JAX CECIL      PTSUNNY   82  79  89 W13       29.99F                  
FERNANDINA BEA PTSUNNY   90  73  58 CALM      29.95F HX  98           
ST AUGUSTINE   SUNNY     87  78  74 S8        29.98S HX 100           
PALM COAST     CLOUDY    81  77  89 NW10      29.98R THUNDER          

STATION/POSITION SKY/WX   TEMP    WIND        PRES    WAVE   SWELL
                          AIR SEA DIR/SP/G            HT/PER HT/PER
                          (F)     (DEG/KT/KT) (MB)    (FT/S) (FT/S)
SHELL POINT      NOT AVBL
KEATON BEACH               77     130/  7/  8 1015.2S
CEDAR KEY                  80     140/  3/  3 1016.6R
FERNANDINA                 89 85  270/  6/  8 1015.5F
30.7N   81.3W                 86                N/A     1/ 8
MAYPORT                    87 84  230/  4/  5 1015.1F
31.4N   80.9W              85 86  180/ 10/ 12 1013.5F   1/ 7   2/ 7
ST AUGUSTINE               85 83  120/  3/  3 1015.0F

$$
FLZ040-043>046-052-053-057-058-063-144-182200-
INTERIOR CENTRAL FLORIDA
  
CITY           SKY/WX    TMP DP  RH WIND       PRES   REMARKS
OCALA          TSTM      77  75  93 VRB3      30.03R                  
THE VILLAGES     N/A     77  77 100 S8G20     29.93S                  
LEESBURG       LGT RAIN  78  76  93 W14G21    30.01F                  
SANFORD        LGT RAIN  81  74  79 W20G33    29.97R                  
ORLANDO EXEC   LGT RAIN  82  75  79 W24G32    29.99R                  
ORLANDO INTL   LGT RAIN  84  73  69 W16G26    29.99R                  
KISSIMMEE      MOSUNNY   85  74  69 W15       29.99R                  
WINTER HAVEN   SUNNY     85  72  65 NW16      30.00F                  
LAKELAND       MOSUNNY   86  73  66 N14       30.00S                  
BARTOW         MOSUNNY   86  72  62 NW15G23   29.98F                  
SEBRING        FAIR      90  73  56 CALM      29.97F HX  97           
OKEECHOBEE     SUNNY     93  64  38 CALM      29.95F HX  95           

$$
FLZ041-047-054-059-064-141-147-182200-
EAST CENTRAL FLORIDA
  
CITY           SKY/WX    TMP DP  RH WIND       PRES   REMARKS
ORMOND BEACH   MOSUNNY   86  77  74 E12       29.96S HX  97           
DAYTONA BEACH  MOSUNNY   89  78  70 E9        29.95F THUNDER HX 103   
DELAND         CLOUDY    82  75  78 W14G21    29.98R THUNDER          
NEW SMYRNA BEA MOSUNNY   91  75  59 E8        29.96F HX 102           
JFK SPACE CTR  SUNNY     92  78  63 S8        29.94F HX 106           
TITUSVILLE     MOSUNNY   91  77  62 SE13      29.96S HX 105           
CAPE CANAVERAL SUNNY     89  77  66 SE14      29.95F HX 101           
PATRICK AFB    SUNNY     88  78  71 SE14      29.96F HX 101           
MELBOURNE      MOSUNNY   90  77  65 SE14      29.96F HX 103           
VERO BEACH     SUNNY     90  74  59 E12       29.97S HX  99           
FT PIERCE      SUNNY     90  75  61 SE14      29.96F HX 100           
STUART         MOSUNNY   91  77  62 SE12      29.98F HX 105           

STATION/POSITION SKY/WX   TEMP    WIND        PRES    WAVE   SWELL
                          AIR SEA DIR/SP/G            HT/PER HT/PER
                          (F)     (DEG/KT/KT) (MB)    (FT/S) (FT/S)
28.5N   80.2W              86 87  150/ 10/ 12 1016.0
28.9N   78.5W              86 86  160/  8/ 10 1015.4F   2/ 8   2/ 8
TRIDENT PIER               87 86  120/  8/ 12 1016.3F
28.4N   80.5W                 86                N/A     1/ 9
27.5N   80.2W                 85                N/A     1/ 7

$$
FLZ050-056-061-142-242-148-248-149-249-151-251-155-255-
160-260-182200-
WEST CENTRAL FLORIDA
  
CITY           SKY/WX    TMP DP  RH WIND       PRES   REMARKS
CRYSTAL RIVER  RAIN      81  77  89 CALM      30.01S                  
INVERNESS      TSTM      77  77 100 N3        30.02F                  
BROOKSVILLE    LGT RAIN  78  77  96 CALM      30.02S                  
CLEARWATER AIR FAIR      81  73  78 NW7       29.99F                  
ST PETE CLEARW PTSUNNY   87  73  62 NW9       29.99F                  
TAMPA INTL     PTSUNNY   85  75  72 W10G18    30.00F                  
TAMPA EXEC     CLOUDY    86  73  66 N5        30.00F                  
PLANT CITY     PTSUNNY   88  79  74 NW9       30.02F HX 102           
MACDILL AFB    MOSUNNY   84  82  93 W7        29.99F HX  99           
PETER O KNIGHT PTSUNNY   90  77  66 NW6       29.99F HX 102           
ST PETERSBURG  SUNNY     87  73  62 W10       29.97F                  
SARASOTA       MOSUNNY   88  75  65 NW12      29.97F HX  97           
VENICE         FAIR      88  77  70 NW12G20   29.99S HX 100           

STATION/POSITION SKY/WX   TEMP    WIND        PRES    WAVE   SWELL
                          AIR SEA DIR/SP/G            HT/PER HT/PER
                          (F)     (DEG/KT/KT) (MB)    (FT/S) (FT/S)
CLEARWATER BEACH           82 90  280/  8/ 10 1015.8F
MIDDLE TAMPA BAY           85     340/ 14/ 15 1015.8F
VENICE                     87 91  300/ 12/ 14 1015.7R

$$
FLZ066-069-070-075>078-162-262-165-265-182200-
SOUTHWEST FLORIDA AND KEYS
  
CITY           SKY/WX    TMP DP  RH WIND       PRES   REMARKS
PUNTA GORDA    TSTM      81  77  88 S12       29.97F                  
FT MYERS       SUNNY     90  73  57 NW9       29.96F HX  98           
SOUTHWEST INTL SUNNY     89  73  59 NW10      29.96F HX  97           
NAPLES         MOSUNNY   91  75  59 NW10      29.96S HX 101           
MARCO ISLAND   PTSUNNY  N/A N/A N/A W9        29.96F                  
IMMOKALEE      FAIR      93  72  49 CALM      29.96F HX 100           
MARATHON       SUNNY     92  76  59 E9        29.96F HX 104           
KEY WEST NAS   PTSUNNY   89  79  72 SE10      29.96F HX 104           
KEY WEST INTL  SUNNY     88  76  67 SE10      29.96F HX  99           

STATION/POSITION SKY/WX   TEMP    WIND        PRES    WAVE   SWELL
                          AIR SEA DIR/SP/G            HT/PER HT/PER
                          (F)     (DEG/KT/KT) (MB)    (FT/S) (FT/S)
NAPLES                        93  300/ 10/ 12 1014.8S
DRY TORTUGAS               87      70/  8/  9 1015.1F
SAND KEY                   85     110/  8/  9 1015.2F
MOLASSES REEF              86 87  120/ 10/ 11 1015.2F

$$
FLZ067-068-071>074-168-172>174-182200-
SOUTHEAST FLORIDA 
  
CITY           SKY/WX    TMP DP  RH WIND       PRES   REMARKS
W PALM BEACH   MOSUNNY   89  75  63 SE14      29.98S HX  99           
BOCA RATON     SUNNY     90  77  66 SE12G20   29.98S HX 102           
FT LAUDER-EXEC MOSUNNY   90  75  61 SE16      29.96F HX 100           
FT LAUDERDALE  MOSUNNY   89  77  67 E17       29.96F HX 101           
POMPANO BEACH  MOSUNNY   90  77  65 E15       29.97F HX 103           
PEMBROKE PINES SUNNY     92  75  57 E14       29.97F HX 103           
OPA LOCKA      SUNNY     92  75  57 SE15      29.96F HX 103           
MIAMI          MOSUNNY   93  73  52 E14       29.96F HX 102           
WEST KENDALL   SUNNY     91  73  55 SE14      29.96F HX  99           
HOMESTEAD      SUNNY     91  77  63 E12       29.96F HX 103           

STATION/POSITION SKY/WX   TEMP    WIND        PRES    WAVE   SWELL
                          AIR SEA DIR/SP/G            HT/PER HT/PER
                          (F)     (DEG/KT/KT) (MB)    (FT/S) (FT/S)
PORT EVERGLADES            88     100/  6/ 13 1015.1F
VIRGINIA KEY               87 91   80/  9/ 11 1014.6F
LAKE WORTH                        130/ 11/ 12   N/A
FOWEY ROCKS                86 87  100/  8/ 10 1015.6F
SETTLEMENT POINT           86     200/  2/  3 1015.9F

$$